Time,TemperatureF,DewpointF,PressureIn,WindDirection,WindDirectionDegrees,WindSpeedMPH,WindSpeedGustMPH,Humidity,HourlyPrecipIn,Conditions,Clouds,dailyrainin,SoftwareType,DateUTC
2013-05-10 00:02:00,52.4,6.5,29.81,NNW,338,0.0,0.7,16,0.00,,,0.00,WUHU216HW,2013-05-10 04:02:00,
2013-05-10 00:07:00,52.4,9.5,29.81,NNW,338,1.1,1.1,18,0.00,,,0.00,WUHU216HW,2013-05-10 04:07:00,
2013-05-10 00:12:00,52.4,3.4,29.81,NNW,338,0.9,1.6,14,0.00,,,0.00,WUHU216HW,2013-05-10 04:12:00,
2013-05-10 00:17:00,52.6,-1.0,29.81,NNW,338,1.1,1.6,11,0.00,,,0.00,WUHU216HW,2013-05-10 04:17:00,
2013-05-10 00:22:00,52.6,-2.5,29.81,NW,315,0.9,1.8,10,0.00,,,0.00,WUHU216HW,2013-05-10 04:22:00,
2013-05-10 00:27:00,52.7,-2.3,29.81,NW,315,0.2,1.8,10,0.00,,,0.00,WUHU216HW,2013-05-10 04:27:00,
2013-05-10 00:32:00,52.9,0.8,29.81,ESE,113,0.0,1.1,12,0.00,,,0.00,WUHU216HW,2013-05-10 04:32:00,
2013-05-10 00:37:00,52.9,0.8,29.81,ENE,68,0.0,0.7,12,0.00,,,0.00,WUHU216HW,2013-05-10 04:37:00,
2013-05-10 00:43:00,53.1,1.0,29.81,NNW,338,1.1,1.1,12,0.00,,,0.00,WUHU216HW,2013-05-10 04:43:00,
2013-05-10 00:48:00,53.1,-2.1,29.81,NNW,338,0.0,1.3,8,0.00,,,0.00,WUHU216HW,2013-05-10 04:48:00,
2013-05-10 00:53:00,52.9,-2.1,29.81,NNW,338,0.0,1.3,10,0.00,,,0.00,WUHU216HW,2013-05-10 04:53:00,
2013-05-10 00:58:00,53.1,-0.5,29.81,NNW,338,0.0,0.4,11,0.00,,,0.00,WUHU216HW,2013-05-10 04:58:00,
2013-05-10 01:03:00,53.1,1.0,29.81,NNW,338,0.0,0.0,12,0.00,,,0.00,WUHU216HW,2013-05-10 05:03:00,
2013-05-10 01:08:00,53.3,4.1,29.81,NNW,338,0.0,0.0,14,0.00,,,0.00,WUHU216HW,2013-05-10 05:08:00,
2013-05-10 01:13:00,53.3,5.7,29.81,NNW,338,0.0,0.0,15,0.00,,,0.00,WUHU216HW,2013-05-10 05:13:00,
2013-05-10 01:18:00,53.3,1.1,29.81,NNW,338,0.9,0.9,12,0.00,,,0.00,WUHU216HW,2013-05-10 05:18:00,
2013-05-10 01:23:00,53.3,-0.3,29.81,NNW,338,0.4,1.3,11,0.00,,,0.00,WUHU216HW,2013-05-10 05:23:00,
2013-05-10 01:28:00,53.3,1.1,29.81,NNW,338,0.0,1.3,12,0.00,,,0.00,WUHU216HW,2013-05-10 05:28:00,
2013-05-10 01:33:00,53.3,1.1,29.81,NNW,338,0.0,0.7,12,0.00,,,0.00,WUHU216HW,2013-05-10 05:33:00,
2013-05-10 01:38:00,53.3,1.1,29.81,North,0,0.9,0.9,12,0.00,,,0.00,WUHU216HW,2013-05-10 05:38:00,
2013-05-10 01:43:00,53.3,-1.9,29.82,North,0,0.2,1.1,10,0.00,,,0.00,WUHU216HW,2013-05-10 05:43:00,
2013-05-10 01:48:00,53.3,-1.9,29.82,North,0,0.9,1.1,8,0.00,,,0.00,WUHU216HW,2013-05-10 05:48:00,
2013-05-10 01:53:00,53.3,-0.3,29.82,North,0,0.2,1.1,11,0.00,,,0.00,WUHU216HW,2013-05-10 05:53:00,
2013-05-10 01:58:00,53.3,-1.9,29.81,North,0,0.4,0.9,10,0.00,,,0.00,WUHU216HW,2013-05-10 05:58:00,
2013-05-10 02:03:00,53.3,-1.9,29.81,North,0,0.0,0.7,10,0.00,,,0.00,WUHU216HW,2013-05-10 06:03:00,
2013-05-10 02:08:00,53.3,-1.9,29.81,North,0,0.9,0.9,7,0.00,,,0.00,WUHU216HW,2013-05-10 06:08:00,
2013-05-10 02:13:00,53.3,-1.9,29.82,NNW,338,0.2,1.6,7,0.00,,,0.00,WUHU216HW,2013-05-10 06:13:00,
2013-05-10 02:18:00,53.1,-2.1,29.82,NNW,338,0.0,1.6,8,0.00,,,0.00,WUHU216HW,2013-05-10 06:18:00,
2013-05-10 02:23:00,53.1,-2.1,29.81,NNW,338,0.0,0.4,10,0.00,,,0.00,WUHU216HW,2013-05-10 06:23:00,
2013-05-10 02:28:00,53.3,-1.9,29.82,NNW,338,0.0,0.4,10,0.00,,,0.00,WUHU216HW,2013-05-10 06:28:00,
2013-05-10 02:33:00,53.3,-1.9,29.81,NNW,338,0.0,0.4,10,0.00,,,0.00,WUHU216HW,2013-05-10 06:33:00,
2013-05-10 02:38:00,53.3,-0.3,29.81,NNW,338,0.0,0.0,11,0.00,,,0.00,WUHU216HW,2013-05-10 06:38:00,
2013-05-10 02:43:00,53.3,-0.3,29.81,NNW,338,0.0,0.7,11,0.00,,,0.00,WUHU216HW,2013-05-10 06:43:00,
2013-05-10 02:48:00,53.3,-1.9,29.82,NNW,338,0.4,0.7,10,0.00,,,0.00,WUHU216HW,2013-05-10 06:48:00,
2013-05-10 02:53:00,53.3,-1.9,29.82,NNW,338,0.4,0.7,10,0.00,,,0.00,WUHU216HW,2013-05-10 06:53:00,
2013-05-10 02:58:00,53.3,1.1,29.82,NNW,338,0.0,0.4,12,0.00,,,0.00,WUHU216HW,2013-05-10 06:58:00,
2013-05-10 03:03:00,53.3,1.1,29.82,NNW,338,0.0,0.4,12,0.00,,,0.00,WUHU216HW,2013-05-10 07:03:00,
2013-05-10 03:08:00,53.5,1.3,29.82,NNW,338,0.4,0.7,12,0.00,,,0.00,WUHU216HW,2013-05-10 07:08:00,
2013-05-10 03:13:00,53.3,1.1,29.82,NW,315,0.4,0.7,12,0.00,,,0.00,WUHU216HW,2013-05-10 07:13:00,
2013-05-10 03:18:00,53.5,1.3,29.82,NW,315,0.0,0.7,12,0.00,,,0.00,WUHU216HW,2013-05-10 07:18:00,
2013-05-10 03:23:00,53.5,4.3,29.82,SE,135,0.4,0.7,14,0.00,,,0.00,WUHU216HW,2013-05-10 07:23:00,
2013-05-10 03:28:00,53.6,4.4,29.82,SSE,158,0.2,0.7,14,0.00,,,0.00,WUHU216HW,2013-05-10 07:28:00,
2013-05-10 03:33:00,53.6,5.9,29.82,SE,135,0.9,1.1,15,0.00,,,0.00,WUHU216HW,2013-05-10 07:33:00,
2013-05-10 03:38:00,53.6,5.9,29.82,SSE,158,1.6,1.6,15,0.00,,,0.00,WUHU216HW,2013-05-10 07:38:00,
2013-05-10 03:43:00,53.6,7.5,29.82,SSE,158,0.4,1.6,16,0.00,,,0.00,WUHU216HW,2013-05-10 07:43:00,
2013-05-10 03:49:00,53.6,10.4,29.82,SSE,158,0.0,1.6,18,0.00,,,0.00,WUHU216HW,2013-05-10 07:49:00,
2013-05-10 03:54:00,53.6,10.4,29.82,SSE,158,0.0,0.0,18,0.00,,,0.00,WUHU216HW,2013-05-10 07:54:00,
2013-05-10 03:59:00,53.6,10.4,29.82,SSE,158,0.0,0.2,18,0.00,,,0.00,WUHU216HW,2013-05-10 07:59:00,
2013-05-10 04:04:00,53.6,12.0,29.83,SSE,158,0.0,0.2,19,0.00,,,0.00,WUHU216HW,2013-05-10 08:04:00,
2013-05-10 04:09:00,53.6,13.5,29.83,SSE,158,0.0,0.0,20,0.00,,,0.00,WUHU216HW,2013-05-10 08:09:00,
2013-05-10 04:14:00,53.6,13.5,29.83,SE,135,0.0,0.2,20,0.00,,,0.00,WUHU216HW,2013-05-10 08:14:00,
2013-05-10 04:19:00,53.6,13.5,29.83,SW,225,0.4,0.4,20,0.00,,,0.00,WUHU216HW,2013-05-10 08:19:00,
2013-05-10 04:24:00,53.6,13.5,29.83,SE,135,0.0,1.1,20,0.00,,,0.00,WUHU216HW,2013-05-10 08:24:00,
2013-05-10 04:29:00,53.6,14.5,29.83,SE,135,0.0,1.1,21,0.00,,,0.00,WUHU216HW,2013-05-10 08:29:00,
2013-05-10 04:34:00,53.6,14.5,29.83,SE,135,0.0,0.2,21,0.00,,,0.00,WUHU216HW,2013-05-10 08:34:00,
2013-05-10 04:39:00,53.6,14.5,29.83,SE,135,0.0,0.0,21,0.00,,,0.00,WUHU216HW,2013-05-10 08:39:00,
2013-05-10 04:44:00,53.6,15.4,29.83,SE,135,0.0,0.7,22,0.00,,,0.00,WUHU216HW,2013-05-10 08:44:00,
2013-05-10 04:49:00,53.5,13.3,29.84,South,180,0.0,0.7,20,0.00,,,0.00,WUHU216HW,2013-05-10 08:49:00,
2013-05-10 04:54:00,53.5,14.3,29.84,SE,135,0.0,0.4,21,0.00,,,0.00,WUHU216HW,2013-05-10 08:54:00,
2013-05-10 04:59:00,53.3,13.2,29.84,SE,135,0.0,0.0,20,0.00,,,0.00,WUHU216HW,2013-05-10 08:59:00,
2013-05-10 05:04:00,53.5,14.3,29.84,SE,135,0.0,0.0,21,0.00,,,0.00,WUHU216HW,2013-05-10 09:04:00,
2013-05-10 05:09:00,53.5,15.3,29.84,SE,135,0.0,0.0,22,0.00,,,0.00,WUHU216HW,2013-05-10 09:09:00,
2013-05-10 05:14:00,53.5,14.3,29.84,SE,135,0.0,0.0,21,0.00,,,0.00,WUHU216HW,2013-05-10 09:14:00,
2013-05-10 05:19:00,53.5,14.3,29.84,SE,135,0.0,0.0,21,0.00,,,0.00,WUHU216HW,2013-05-10 09:19:00,
2013-05-10 05:24:00,53.5,14.3,29.84,SE,135,0.0,0.9,21,0.00,,,0.00,WUHU216HW,2013-05-10 09:24:00,
2013-05-10 05:29:00,53.5,14.3,29.84,SE,135,0.0,0.9,21,0.00,,,0.00,WUHU216HW,2013-05-10 09:29:00,
2013-05-10 05:34:00,53.5,15.3,29.84,SSE,158,0.9,0.9,22,0.00,,,0.00,WUHU216HW,2013-05-10 09:34:00,
2013-05-10 05:39:00,53.5,15.3,29.84,SSE,158,0.0,0.9,22,0.00,,,0.00,WUHU216HW,2013-05-10 09:39:00,
2013-05-10 05:44:00,53.5,15.3,29.84,SSE,158,0.0,0.9,22,0.00,,,0.00,WUHU216HW,2013-05-10 09:44:00,
2013-05-10 05:49:00,53.3,10.2,29.85,NNE,23,0.0,1.3,18,0.00,,,0.00,WUHU216HW,2013-05-10 09:49:00,
2013-05-10 05:54:00,53.3,13.2,29.85,WSW,248,0.0,1.3,20,0.00,,,0.00,WUHU216HW,2013-05-10 09:54:00,
2013-05-10 05:59:00,53.1,13.1,29.85,South,180,0.4,0.4,20,0.00,,,0.00,WUHU216HW,2013-05-10 09:59:00,
2013-05-10 06:04:00,53.1,13.1,29.85,SE,135,1.1,1.1,20,0.00,,,0.00,WUHU216HW,2013-05-10 10:04:00,
2013-05-10 06:09:00,53.3,14.1,29.85,SE,135,0.7,1.3,21,0.00,,,0.00,WUHU216HW,2013-05-10 10:09:00,
2013-05-10 06:14:00,53.3,14.1,29.85,SSE,158,0.4,2.0,21,0.00,,,0.00,WUHU216HW,2013-05-10 10:14:00,
2013-05-10 06:19:00,53.3,15.1,29.85,SE,135,1.1,2.0,22,0.00,,,0.00,WUHU216HW,2013-05-10 10:19:00,
2013-05-10 06:24:00,53.1,14.9,29.85,SE,135,0.4,1.3,22,0.00,,,0.00,WUHU216HW,2013-05-10 10:24:00,
2013-05-10 06:29:00,53.3,15.1,29.85,SSE,158,0.9,1.1,22,0.00,,,0.00,WUHU216HW,2013-05-10 10:29:00,
2013-05-10 06:34:00,53.3,15.1,29.86,South,180,0.0,0.9,22,0.00,,,0.00,WUHU216HW,2013-05-10 10:34:00,
2013-05-10 06:39:00,53.3,15.1,29.85,SE,135,0.7,1.1,22,0.00,,,0.00,WUHU216HW,2013-05-10 10:39:00,
2013-05-10 06:44:00,53.3,15.1,29.85,SE,135,1.1,1.8,22,0.00,,,0.00,WUHU216HW,2013-05-10 10:44:00,
2013-05-10 06:49:00,53.3,14.1,29.85,SSE,158,1.3,1.8,21,0.00,,,0.00,WUHU216HW,2013-05-10 10:49:00,
2013-05-10 06:55:00,53.3,15.1,29.86,South,180,0.4,1.8,22,0.00,,,0.00,WUHU216HW,2013-05-10 10:55:00,
2013-05-10 07:00:00,53.3,15.1,29.86,SE,135,2.2,2.2,22,0.00,,,0.00,WUHU216HW,2013-05-10 11:00:00,
2013-05-10 07:05:00,53.3,15.1,29.87,SE,135,0.9,2.2,22,0.00,,,0.00,WUHU216HW,2013-05-10 11:05:00,
2013-05-10 07:10:00,53.5,15.3,29.88,SSE,158,1.3,2.2,22,0.00,,,0.00,WUHU216HW,2013-05-10 11:10:00,
2013-05-10 07:15:00,53.6,16.4,29.88,SE,135,1.1,2.0,23,0.00,,,0.00,WUHU216HW,2013-05-10 11:15:00,
2013-05-10 07:20:00,53.8,17.5,29.88,SE,135,1.1,1.6,24,0.00,,,0.00,WUHU216HW,2013-05-10 11:20:00,
2013-05-10 07:25:00,54.2,17.8,29.88,ESE,113,1.6,1.8,24,0.00,,,0.00,WUHU216HW,2013-05-10 11:25:00,
2013-05-10 07:30:00,54.4,18.9,29.88,ESE,113,0.9,2.0,25,0.00,,,0.00,WUHU216HW,2013-05-10 11:30:00,
2013-05-10 07:35:00,54.7,21.1,29.88,ESE,113,0.2,2.0,27,0.00,,,0.00,WUHU216HW,2013-05-10 11:35:00,
2013-05-10 07:40:00,54.9,21.3,29.88,ESE,113,0.0,1.8,27,0.00,,,0.00,WUHU216HW,2013-05-10 11:40:00,
2013-05-10 07:45:00,54.9,22.1,29.88,SSE,158,1.8,1.8,28,0.00,,,0.00,WUHU216HW,2013-05-10 11:45:00,
2013-05-10 07:50:00,55.3,23.4,29.88,SE,135,0.0,1.8,29,0.00,,,0.00,WUHU216HW,2013-05-10 11:50:00,
2013-05-10 07:55:00,55.3,24.3,29.87,SE,135,0.0,1.8,30,0.00,,,0.00,WUHU216HW,2013-05-10 11:55:00,
2013-05-10 08:00:00,55.3,20.6,29.87,NNW,338,2.7,2.7,26,0.00,,,0.00,WUHU216HW,2013-05-10 12:00:00,
2013-05-10 08:05:00,55.1,19.5,29.87,NW,315,0.4,2.7,25,0.00,,,0.00,WUHU216HW,2013-05-10 12:05:00,
2013-05-10 08:10:00,55.3,18.7,29.87,North,0,1.1,2.7,24,0.00,,,0.00,WUHU216HW,2013-05-10 12:10:00,
2013-05-10 08:15:00,55.6,19.0,29.88,North,0,0.7,2.5,24,0.00,,,0.00,WUHU216HW,2013-05-10 12:15:00,
2013-05-10 08:20:00,56.2,22.3,29.87,West,270,0.0,1.6,27,0.00,,,0.00,WUHU216HW,2013-05-10 12:20:00,
2013-05-10 08:25:00,57.1,28.1,29.87,North,0,2.0,2.0,33,0.00,,,0.00,WUHU216HW,2013-05-10 12:25:00,
2013-05-10 08:30:00,56.5,29.7,29.87,NW,315,0.0,2.9,36,0.00,,,0.00,WUHU216HW,2013-05-10 12:30:00,
2013-05-10 08:35:00,56.9,27.2,29.88,SE,135,0.2,2.9,32,0.00,,,0.00,WUHU216HW,2013-05-10 12:35:00,
2013-05-10 08:40:00,57.4,28.4,29.87,East,90,0.9,3.4,33,0.00,,,0.00,WUHU216HW,2013-05-10 12:40:00,
2013-05-10 08:45:00,58.3,33.4,29.87,SE,135,1.8,3.4,39,0.00,,,0.00,WUHU216HW,2013-05-10 12:45:00,
2013-05-10 08:50:00,58.9,33.8,29.87,SE,135,2.0,3.4,39,0.00,,,0.00,WUHU216HW,2013-05-10 12:50:00,
2013-05-10 08:56:00,59.6,41.0,29.87,East,90,2.2,3.4,50,0.00,,,0.00,WUHU216HW,2013-05-10 12:56:00,
2013-05-10 09:01:00,59.9,39.0,29.88,SE,135,0.7,3.4,46,0.00,,,0.00,WUHU216HW,2013-05-10 13:01:00,
2013-05-10 09:06:00,60.7,42.9,29.87,SE,135,3.1,4.0,52,0.00,,,0.00,WUHU216HW,2013-05-10 13:06:00,
2013-05-10 09:11:00,61.2,46.8,29.87,East,90,2.2,4.0,59,0.00,,,0.00,WUHU216HW,2013-05-10 13:11:00,
2013-05-10 09:16:00,61.9,44.6,29.87,SE,135,2.5,3.4,53,0.00,,,0.00,WUHU216HW,2013-05-10 13:16:00,
2013-05-10 09:21:00,63.0,49.8,29.87,East,90,1.1,3.4,62,0.00,,,0.00,WUHU216HW,2013-05-10 13:21:00,
2013-05-10 09:26:00,63.5,47.0,29.87,East,90,0.4,3.4,55,0.00,,,0.00,WUHU216HW,2013-05-10 13:26:00,
2013-05-10 09:31:00,64.3,48.6,29.87,East,90,1.6,3.4,57,0.00,,,0.00,WUHU216HW,2013-05-10 13:31:00,
2013-05-10 09:36:00,64.8,49.6,29.87,ESE,113,1.3,2.5,58,0.00,,,0.00,WUHU216HW,2013-05-10 13:36:00,
2013-05-10 09:41:00,65.7,50.5,29.87,SE,135,1.8,2.5,58,0.00,,,0.00,WUHU216HW,2013-05-10 13:41:00,
2013-05-10 09:46:00,66.6,55.3,29.87,ENE,68,2.0,2.9,67,0.00,,,0.00,WUHU216HW,2013-05-10 13:46:00,
2013-05-10 09:51:00,67.0,54.8,29.86,ENE,68,0.2,2.9,65,0.00,,,0.00,WUHU216HW,2013-05-10 13:51:00,
2013-05-10 09:56:00,67.3,55.5,29.86,ENE,68,0.4,2.7,66,0.00,,,0.00,WUHU216HW,2013-05-10 13:56:00,
2013-05-10 10:01:00,68.0,56.3,29.86,NE,45,0.4,3.4,66,0.00,,,0.00,WUHU216HW,2013-05-10 14:01:00,
2013-05-10 10:06:00,68.8,57.3,29.86,NE,45,2.7,3.4,67,0.00,,,0.00,WUHU216HW,2013-05-10 14:06:00,
2013-05-10 10:11:00,68.8,56.9,29.86,NNW,338,1.1,2.7,66,0.00,,,0.00,WUHU216HW,2013-05-10 14:11:00,
2013-05-10 10:16:00,68.8,56.5,29.86,WNW,293,2.2,2.9,65,0.00,,,0.00,WUHU216HW,2013-05-10 14:16:00,
2013-05-10 10:21:00,68.8,56.9,29.86,NNW,338,2.7,3.1,66,0.00,,,0.00,WUHU216HW,2013-05-10 14:21:00,
2013-05-10 10:26:00,68.9,57.1,29.86,NE,45,0.2,3.1,66,0.00,,,0.00,WUHU216HW,2013-05-10 14:26:00,
2013-05-10 10:31:00,69.3,57.4,29.86,East,90,0.9,2.9,66,0.00,,,0.00,WUHU216HW,2013-05-10 14:31:00,
2013-05-10 10:36:00,71.5,59.5,29.86,South,180,1.1,2.0,66,0.00,,,0.00,WUHU216HW,2013-05-10 14:36:00,
2013-05-10 10:41:00,72.2,60.2,29.86,SSE,158,0.4,1.6,66,0.00,,,0.00,WUHU216HW,2013-05-10 14:41:00,
2013-05-10 10:46:00,72.0,59.1,29.86,SE,135,1.6,2.9,64,0.00,,,0.00,WUHU216HW,2013-05-10 14:46:00,
2013-05-10 10:51:00,72.0,59.6,29.86,NNE,23,2.9,2.9,65,0.00,,,0.00,WUHU216HW,2013-05-10 14:51:00,
2013-05-10 10:56:00,71.8,59.4,29.86,East,90,0.7,2.9,65,0.00,,,0.00,WUHU216HW,2013-05-10 14:56:00,
2013-05-10 11:01:00,71.6,59.7,29.86,SE,135,1.1,2.9,66,0.00,,,0.00,WUHU216HW,2013-05-10 15:01:00,
2013-05-10 11:06:00,71.6,59.7,29.86,SE,135,2.0,2.7,66,0.00,,,0.00,WUHU216HW,2013-05-10 15:06:00,
2013-05-10 11:11:00,71.8,59.9,29.86,East,90,0.0,2.7,66,0.00,,,0.00,WUHU216HW,2013-05-10 15:11:00,
2013-05-10 11:16:00,72.4,60.0,29.86,SW,225,0.4,2.0,65,0.00,,,0.00,WUHU216HW,2013-05-10 15:16:00,
2013-05-10 11:21:00,72.5,59.7,29.86,NE,45,0.9,2.5,64,0.00,,,0.00,WUHU216HW,2013-05-10 15:21:00,
2013-05-10 11:26:00,73.8,61.3,29.86,SE,135,0.4,2.7,65,0.00,,,0.00,WUHU216HW,2013-05-10 15:26:00,
2013-05-10 11:31:00,74.5,61.9,29.86,ESE,113,2.9,2.9,65,0.00,,,0.00,WUHU216HW,2013-05-10 15:31:00,
2013-05-10 11:36:00,74.7,59.0,29.85,East,90,1.6,2.9,58,0.00,,,0.00,WUHU216HW,2013-05-10 15:36:00,
2013-05-10 11:42:00,73.4,59.6,29.85,WNW,293,0.4,2.9,62,0.00,,,0.00,WUHU216HW,2013-05-10 15:42:00,
2013-05-10 11:47:00,72.5,58.8,29.85,NNW,338,2.5,3.8,62,0.00,,,0.00,WUHU216HW,2013-05-10 15:47:00,
2013-05-10 11:52:00,73.1,58.8,29.85,North,0,4.0,4.3,61,0.00,,,0.00,WUHU216HW,2013-05-10 15:52:00,
2013-05-10 11:57:00,73.3,59.9,29.85,NNE,23,1.3,4.9,63,0.00,,,0.00,WUHU216HW,2013-05-10 15:57:00,
2013-05-10 12:02:00,73.8,60.0,29.85,North,0,1.6,4.9,62,0.00,,,0.00,WUHU216HW,2013-05-10 16:02:00,
2013-05-10 12:07:00,74.5,58.8,29.85,North,0,3.4,3.4,58,0.00,,,0.00,WUHU216HW,2013-05-10 16:07:00,
2013-05-10 12:12:00,72.7,59.0,29.85,SE,135,1.6,7.6,62,0.00,,,0.00,WUHU216HW,2013-05-10 16:12:00,
2013-05-10 12:17:00,71.6,58.0,29.85,North,0,2.5,7.6,62,0.00,,,0.00,WUHU216HW,2013-05-10 16:17:00,
2013-05-10 12:22:00,70.6,57.3,29.85,North,0,1.3,3.8,63,0.00,,,0.00,WUHU216HW,2013-05-10 16:22:00,
2013-05-10 12:27:00,70.4,57.2,29.84,North,0,2.5,3.8,63,0.00,,,0.00,WUHU216HW,2013-05-10 16:27:00,
2013-05-10 12:32:00,71.3,57.6,29.84,NNW,338,5.4,5.4,62,0.00,,,0.00,WUHU216HW,2013-05-10 16:32:00,
2013-05-10 12:37:00,72.2,58.0,29.84,ENE,68,3.4,5.4,61,0.00,,,0.00,WUHU216HW,2013-05-10 16:37:00,
2013-05-10 12:42:00,72.7,58.5,29.84,North,0,2.7,5.4,61,0.00,,,0.00,WUHU216HW,2013-05-10 16:42:00,
2013-05-10 12:47:00,72.7,58.5,29.84,NNW,338,2.9,4.0,61,0.00,,,0.00,WUHU216HW,2013-05-10 16:47:00,
2013-05-10 12:52:00,72.7,57.1,29.84,NNW,338,3.4,4.7,58,0.00,,,0.00,WUHU216HW,2013-05-10 16:52:00,
2013-05-10 12:57:00,73.1,56.3,29.84,North,0,0.4,4.7,56,0.00,,,0.00,WUHU216HW,2013-05-10 16:57:00,
2013-05-10 13:02:00,72.7,56.0,29.83,NW,315,2.2,3.6,56,0.00,,,0.00,WUHU216HW,2013-05-10 17:02:00,
2013-05-10 13:07:00,72.7,57.5,29.83,SW,225,0.2,2.2,59,0.00,,,0.00,WUHU216HW,2013-05-10 17:07:00,
2013-05-10 13:12:00,73.4,57.2,29.83,NNW,338,1.8,2.2,57,0.00,,,0.00,WUHU216HW,2013-05-10 17:12:00,
2013-05-10 13:17:00,73.3,57.5,29.83,NNW,338,1.1,4.7,58,0.00,,,0.00,WUHU216HW,2013-05-10 17:17:00,
2013-05-10 13:22:00,73.1,57.3,29.83,West,270,1.8,4.7,58,0.00,,,0.00,WUHU216HW,2013-05-10 17:22:00,
2013-05-10 13:27:00,73.6,57.9,29.82,NW,315,1.1,1.8,58,0.00,,,0.00,WUHU216HW,2013-05-10 17:27:00,
2013-05-10 13:32:00,74.2,58.9,29.82,West,270,0.4,1.8,59,0.00,,,0.00,WUHU216HW,2013-05-10 17:32:00,
2013-05-10 13:37:00,74.7,57.4,29.82,WNW,293,0.7,1.3,55,0.00,,,0.00,WUHU216HW,2013-05-10 17:37:00,
2013-05-10 13:42:00,74.5,57.8,29.82,WNW,293,0.0,1.3,56,0.00,,,0.00,WUHU216HW,2013-05-10 17:42:00,
2013-05-10 13:47:00,74.9,59.6,29.82,SE,135,1.1,1.1,59,0.00,,,0.00,WUHU216HW,2013-05-10 17:47:00,
2013-05-10 13:52:00,75.1,59.8,29.82,SSE,158,1.8,1.8,59,0.00,,,0.00,WUHU216HW,2013-05-10 17:52:00,
2013-05-10 13:57:00,75.6,60.3,29.82,SE,135,1.3,1.8,59,0.00,,,0.00,WUHU216HW,2013-05-10 17:57:00,
2013-05-10 14:02:00,76.1,59.8,29.82,SE,135,2.5,3.8,57,0.00,,,0.00,WUHU216HW,2013-05-10 18:02:00,
2013-05-10 14:07:00,76.5,59.6,29.82,SSE,158,3.1,5.8,56,0.00,,,0.00,WUHU216HW,2013-05-10 18:07:00,
2013-05-10 14:12:00,76.3,59.0,29.82,South,180,0.7,5.8,55,0.00,,,0.00,WUHU216HW,2013-05-10 18:12:00,
2013-05-10 14:18:00,76.3,59.4,29.82,ESE,113,1.1,3.8,56,0.00,,,0.00,WUHU216HW,2013-05-10 18:18:00,
2013-05-10 14:23:00,76.3,59.4,29.82,SSE,158,2.0,2.9,56,0.00,,,0.00,WUHU216HW,2013-05-10 18:23:00,
2013-05-10 14:28:00,76.0,59.1,29.82,SSE,158,1.1,2.9,56,0.00,,,0.00,WUHU216HW,2013-05-10 18:28:00,
2013-05-10 14:33:00,75.6,58.3,29.82,ESE,113,2.5,2.7,55,0.00,,,0.00,WUHU216HW,2013-05-10 18:33:00,
2013-05-10 14:38:00,75.2,58.5,29.82,SE,135,1.6,2.9,56,0.00,,,0.00,WUHU216HW,2013-05-10 18:38:00,
2013-05-10 14:43:00,75.2,59.0,29.82,SSE,158,0.2,2.9,57,0.00,,,0.00,WUHU216HW,2013-05-10 18:43:00,
2013-05-10 14:48:00,75.6,59.3,29.82,SE,135,2.9,2.9,57,0.00,,,0.00,WUHU216HW,2013-05-10 18:48:00,
2013-05-10 14:53:00,76.1,60.3,29.82,SE,135,1.6,2.9,58,0.00,,,0.00,WUHU216HW,2013-05-10 18:53:00,
2013-05-10 14:58:00,76.7,60.3,29.82,SE,135,3.1,3.1,57,0.00,,,0.00,WUHU216HW,2013-05-10 18:58:00,
2013-05-10 15:03:00,77.0,60.6,29.82,SSE,158,2.5,4.7,57,0.00,,,0.00,WUHU216HW,2013-05-10 19:03:00,
2013-05-10 15:08:00,77.0,60.1,29.82,SSE,158,3.4,4.7,56,0.00,,,0.00,WUHU216HW,2013-05-10 19:08:00,
2013-05-10 15:13:00,77.2,60.3,29.81,SSE,158,4.0,4.3,56,0.00,,,0.00,WUHU216HW,2013-05-10 19:13:00,
2013-05-10 15:18:00,77.6,60.1,29.81,SSE,158,2.5,4.3,55,0.00,,,0.00,WUHU216HW,2013-05-10 19:18:00,
2013-05-10 15:23:00,77.4,60.0,29.81,SE,135,1.8,4.0,55,0.00,,,0.00,WUHU216HW,2013-05-10 19:23:00,
2013-05-10 15:28:00,77.2,59.2,29.82,SE,135,4.0,4.0,54,0.00,,,0.00,WUHU216HW,2013-05-10 19:28:00,
2013-05-10 15:33:00,77.0,59.6,29.81,ESE,113,2.9,4.0,55,0.00,,,0.00,WUHU216HW,2013-05-10 19:33:00,
2013-05-10 15:38:00,76.9,59.0,29.81,SE,135,2.5,4.0,54,0.00,,,0.00,WUHU216HW,2013-05-10 19:38:00,
2013-05-10 15:43:00,76.7,59.2,29.81,ESE,113,1.3,3.6,55,0.00,,,0.00,WUHU216HW,2013-05-10 19:43:00,
2013-05-10 15:48:00,76.5,59.6,29.81,SSE,158,1.8,3.8,56,0.00,,,0.00,WUHU216HW,2013-05-10 19:48:00,
2013-05-10 15:53:00,76.3,59.9,29.81,SSE,158,3.1,3.8,57,0.00,,,0.00,WUHU216HW,2013-05-10 19:53:00,
2013-05-10 15:58:00,76.1,59.8,29.81,South,180,4.0,4.0,57,0.00,,,0.00,WUHU216HW,2013-05-10 19:58:00,
2013-05-10 16:03:00,76.5,60.6,29.81,SE,135,1.6,4.0,58,0.00,,,0.00,WUHU216HW,2013-05-10 20:03:00,
2013-05-10 16:08:00,77.0,61.1,29.81,SE,135,1.1,4.0,58,0.00,,,0.00,WUHU216HW,2013-05-10 20:08:00,
2013-05-10 16:13:00,77.2,60.8,29.81,SSE,158,0.4,3.1,57,0.00,,,0.00,WUHU216HW,2013-05-10 20:13:00,
2013-05-10 16:18:00,77.4,61.5,29.81,SE,135,1.3,2.9,58,0.00,,,0.00,WUHU216HW,2013-05-10 20:18:00,
2013-05-10 16:23:00,77.0,60.6,29.81,SE,135,1.1,2.7,57,0.00,,,0.00,WUHU216HW,2013-05-10 20:23:00,
2013-05-10 16:28:00,76.7,60.8,29.81,ESE,113,2.5,2.5,58,0.00,,,0.00,WUHU216HW,2013-05-10 20:28:00,
2013-05-10 16:33:00,76.3,60.5,29.81,SSE,158,1.6,3.1,58,0.00,,,0.00,WUHU216HW,2013-05-10 20:33:00,
2013-05-10 16:38:00,76.1,60.3,29.80,SE,135,1.8,3.4,58,0.00,,,0.00,WUHU216HW,2013-05-10 20:38:00,
2013-05-10 16:43:00,76.1,60.3,29.80,SE,135,2.5,3.4,58,0.00,,,0.00,WUHU216HW,2013-05-10 20:43:00,
2013-05-10 16:48:00,76.3,60.9,29.80,SE,135,3.4,3.4,59,0.00,,,0.00,WUHU216HW,2013-05-10 20:48:00,
2013-05-10 16:53:00,76.3,60.9,29.80,SE,135,3.4,3.4,59,0.00,,,0.00,WUHU216HW,2013-05-10 20:53:00,
2013-05-10 16:59:00,76.3,60.9,29.80,SE,135,3.4,3.4,59,0.00,,,0.00,WUHU216HW,2013-05-10 20:59:00,
2013-05-10 17:07:00,76.3,60.9,29.80,SE,135,3.4,3.4,59,0.00,,,0.00,WUHU216HW,2013-05-10 21:07:00,
2013-05-10 18:13:00,73.1,59.7,29.80,WSW,248,1.1,1.1,63,0.00,,,0.00,WUHU216HW,2013-05-10 22:13:00,
2013-05-10 18:18:00,72.4,59.5,29.79,WSW,248,0.4,1.1,64,0.00,,,0.00,WUHU216HW,2013-05-10 22:18:00,
2013-05-10 18:23:00,72.0,59.1,29.79,WSW,248,0.0,1.1,64,0.00,,,0.00,WUHU216HW,2013-05-10 22:23:00,
2013-05-10 18:28:00,71.6,59.7,29.79,WSW,248,0.0,0.4,66,0.00,,,0.00,WUHU216HW,2013-05-10 22:28:00,
2013-05-10 18:33:00,71.1,58.3,29.79,West,270,0.4,1.1,64,0.00,,,0.00,WUHU216HW,2013-05-10 22:33:00,
2013-05-10 18:38:00,70.9,58.5,29.79,West,270,0.0,1.1,65,0.00,,,0.00,WUHU216HW,2013-05-10 22:38:00,
2013-05-10 18:43:00,70.6,58.2,29.79,West,270,0.0,0.4,65,0.00,,,0.00,WUHU216HW,2013-05-10 22:43:00,
2013-05-10 18:48:00,69.8,58.0,29.79,NNW,338,0.2,1.1,66,0.00,,,0.00,WUHU216HW,2013-05-10 22:48:00,
2013-05-10 18:53:00,69.3,57.4,29.79,NNW,338,1.8,1.8,66,0.00,,,0.00,WUHU216HW,2013-05-10 22:53:00,
2013-05-10 18:58:00,69.1,57.2,29.80,NW,315,1.6,1.8,66,0.00,,,0.00,WUHU216HW,2013-05-10 22:58:00,
2013-05-10 19:03:00,68.8,56.9,29.80,NNW,338,2.2,2.2,66,0.00,,,0.00,WUHU216HW,2013-05-10 23:03:00,
2013-05-10 19:08:00,68.8,56.9,29.80,NW,315,1.8,2.2,66,0.00,,,0.00,WUHU216HW,2013-05-10 23:08:00,
2013-05-10 19:13:00,68.4,56.6,29.80,WNW,293,1.8,2.2,66,0.00,,,0.00,WUHU216HW,2013-05-10 23:13:00,
2013-05-10 19:18:00,67.7,56.4,29.80,West,270,0.4,1.8,67,0.00,,,0.00,WUHU216HW,2013-05-10 23:18:00,
2013-05-10 19:23:00,67.3,56.0,29.80,NNW,338,0.4,1.8,67,0.00,,,0.00,WUHU216HW,2013-05-10 23:23:00,
2013-05-10 19:28:00,67.0,55.6,29.80,NNW,338,0.4,1.3,67,0.00,,,0.00,WUHU216HW,2013-05-10 23:28:00,
2013-05-10 19:33:00,66.8,55.4,29.79,NNW,338,0.4,0.7,67,0.00,,,0.00,WUHU216HW,2013-05-10 23:33:00,
2013-05-10 19:38:00,66.6,55.3,29.79,NNW,338,0.4,0.7,67,0.00,,,0.00,WUHU216HW,2013-05-10 23:38:00,
2013-05-10 19:43:00,66.6,55.3,29.80,NW,315,0.7,0.7,67,0.00,,,0.00,WUHU216HW,2013-05-10 23:43:00,
2013-05-10 19:48:00,65.9,54.5,29.80,NW,315,0.0,0.7,67,0.00,,,0.00,WUHU216HW,2013-05-10 23:48:00,
2013-05-10 19:53:00,65.2,53.9,29.80,NNW,338,0.0,1.1,67,0.00,,,0.00,WUHU216HW,2013-05-10 23:53:00,
2013-05-10 19:59:00,64.8,53.6,29.80,SSE,158,0.0,1.1,67,0.00,,,0.00,WUHU216HW,2013-05-10 23:59:00,
2013-05-10 20:04:00,64.4,53.3,29.79,SSE,158,0.0,0.4,67,0.00,,,0.00,WUHU216HW,2013-05-11 00:04:00,
2013-05-10 20:09:00,63.9,52.8,29.79,SSE,158,0.0,0.0,67,0.00,,,0.00,WUHU216HW,2013-05-11 00:09:00,
2013-05-10 20:14:00,63.5,52.4,29.79,SSE,158,0.0,0.0,67,0.00,,,0.00,WUHU216HW,2013-05-11 00:14:00,
2013-05-10 20:19:00,63.2,51.6,29.79,SSE,158,0.0,0.0,66,0.00,,,0.00,WUHU216HW,2013-05-11 00:19:00,
2013-05-10 20:24:00,62.5,50.5,29.79,SSE,158,0.0,0.0,65,0.00,,,0.00,WUHU216HW,2013-05-11 00:24:00,
2013-05-10 20:29:00,61.9,50.1,29.79,SSE,158,0.0,0.4,65,0.00,,,0.00,WUHU216HW,2013-05-11 00:29:00,
2013-05-10 20:34:00,61.6,49.7,29.79,SSE,158,0.0,0.4,65,0.00,,,0.00,WUHU216HW,2013-05-11 00:34:00,
2013-05-10 20:39:00,61.4,48.7,29.79,SSE,158,0.0,0.0,63,0.00,,,0.00,WUHU216HW,2013-05-11 00:39:00,
2013-05-10 20:44:00,61.2,48.5,29.79,SSE,158,0.0,0.0,63,0.00,,,0.00,WUHU216HW,2013-05-11 00:44:00,
2013-05-10 20:49:00,61.0,48.4,29.79,SSE,158,0.0,0.0,63,0.00,,,0.00,WUHU216HW,2013-05-11 00:49:00,
2013-05-10 20:54:00,60.5,47.4,29.79,SSE,158,0.0,0.0,62,0.00,,,0.00,WUHU216HW,2013-05-11 00:54:00,
2013-05-10 20:59:00,60.3,46.9,29.79,SSE,158,0.0,0.0,61,0.00,,,0.00,WUHU216HW,2013-05-11 00:59:00,
2013-05-10 21:04:00,59.8,44.9,29.79,SSE,158,0.4,0.4,58,0.00,,,0.00,WUHU216HW,2013-05-11 01:04:00,
2013-05-10 21:09:00,59.4,41.8,29.79,SSE,158,0.0,0.4,52,0.00,,,0.00,WUHU216HW,2013-05-11 01:09:00,
2013-05-10 21:14:00,59.0,41.0,29.79,WNW,293,0.9,0.9,51,0.00,,,0.00,WUHU216HW,2013-05-11 01:14:00,
2013-05-10 21:19:00,58.7,40.1,29.79,NW,315,0.0,0.9,50,0.00,,,0.00,WUHU216HW,2013-05-11 01:19:00,
2013-05-10 21:24:00,58.7,39.6,29.79,NW,315,0.7,0.9,49,0.00,,,0.00,WUHU216HW,2013-05-11 01:24:00,
2013-05-10 21:29:00,58.5,37.2,29.79,North,0,0.0,0.7,45,0.00,,,0.00,WUHU216HW,2013-05-11 01:29:00,
2013-05-10 21:34:00,58.3,38.2,29.79,North,0,0.2,0.7,47,0.00,,,0.00,WUHU216HW,2013-05-11 01:34:00,
2013-05-10 21:39:00,58.3,39.2,29.79,North,0,0.0,0.2,49,0.00,,,0.00,WUHU216HW,2013-05-11 01:39:00,
2013-05-10 21:44:00,58.1,39.2,29.79,North,0,0.0,0.0,49,0.00,,,0.00,WUHU216HW,2013-05-11 01:44:00,
2013-05-10 21:49:00,58.0,38.3,29.79,North,0,0.0,0.0,48,0.00,,,0.00,WUHU216HW,2013-05-11 01:49:00,
2013-05-10 21:54:00,57.8,38.8,29.78,North,0,0.0,0.0,49,0.00,,,0.00,WUHU216HW,2013-05-11 01:54:00,
2013-05-10 21:59:00,57.8,38.3,29.78,NNE,23,0.0,0.0,48,0.00,,,0.00,WUHU216HW,2013-05-11 01:59:00,
2013-05-10 22:04:00,57.6,38.1,29.78,NNE,23,0.0,0.0,48,0.00,,,0.00,WUHU216HW,2013-05-11 02:04:00,
2013-05-10 22:09:00,57.4,37.4,29.78,NNE,23,0.0,0.0,47,0.00,,,0.00,WUHU216HW,2013-05-11 02:09:00,
2013-05-10 22:14:00,57.2,34.8,29.78,North,0,0.0,0.0,43,0.00,,,0.00,WUHU216HW,2013-05-11 02:14:00,
2013-05-10 22:19:00,56.9,32.8,29.77,North,0,0.0,0.0,40,0.00,,,0.00,WUHU216HW,2013-05-11 02:19:00,
2013-05-10 22:24:00,56.7,32.0,29.77,North,0,0.0,0.0,39,0.00,,,0.00,WUHU216HW,2013-05-11 02:24:00,
2013-05-10 22:29:00,56.7,30.5,29.77,North,0,0.0,0.0,37,0.00,,,0.00,WUHU216HW,2013-05-11 02:29:00,
2013-05-10 22:34:00,56.5,30.3,29.77,North,0,0.0,0.0,37,0.00,,,0.00,WUHU216HW,2013-05-11 02:34:00,
2013-05-10 22:39:00,56.5,31.1,29.77,North,0,0.0,0.0,38,0.00,,,0.00,WUHU216HW,2013-05-11 02:39:00,
2013-05-10 22:44:00,56.5,31.8,29.76,North,0,0.0,0.0,39,0.00,,,0.00,WUHU216HW,2013-05-11 02:44:00,
2013-05-10 22:49:00,56.2,32.1,29.76,North,0,0.0,0.0,40,0.00,,,0.00,WUHU216HW,2013-05-11 02:49:00,
2013-05-10 22:55:00,56.0,32.6,29.76,North,0,0.0,0.0,41,0.00,,,0.00,WUHU216HW,2013-05-11 02:55:00,
2013-05-10 23:00:00,55.8,31.2,29.77,North,0,0.0,0.0,39,0.00,,,0.00,WUHU216HW,2013-05-11 03:00:00,
2013-05-10 23:05:00,55.1,14.8,29.76,North,0,0.7,0.9,20,0.00,,,0.00,WUHU216HW,2013-05-11 03:05:00,
2013-05-10 23:10:00,55.1,15.8,29.76,NNW,338,0.2,1.3,21,0.00,,,0.00,WUHU216HW,2013-05-11 03:10:00,
2013-05-10 23:15:00,55.1,16.7,29.76,NNW,338,0.4,1.3,22,0.00,,,0.00,WUHU216HW,2013-05-11 03:15:00,
2013-05-10 23:20:00,54.9,15.6,29.76,NNW,338,0.9,0.9,21,0.00,,,0.00,WUHU216HW,2013-05-11 03:20:00,
2013-05-10 23:25:00,54.9,17.5,29.76,NNW,338,0.0,1.1,23,0.00,,,0.00,WUHU216HW,2013-05-11 03:25:00,
2013-05-10 23:30:00,55.1,19.5,29.76,NNW,338,0.0,1.1,25,0.00,,,0.00,WUHU216HW,2013-05-11 03:30:00,
2013-05-10 23:35:00,54.9,21.3,29.76,NNW,338,0.0,0.0,27,0.00,,,0.00,WUHU216HW,2013-05-11 03:35:00,
2013-05-10 23:40:00,54.9,22.1,29.76,NNW,338,0.0,0.0,28,0.00,,,0.00,WUHU216HW,2013-05-11 03:40:00,
2013-05-10 23:45:00,54.7,19.2,29.76,NNW,338,0.0,0.0,25,0.00,,,0.00,WUHU216HW,2013-05-11 03:45:00,
2013-05-10 23:50:00,54.7,19.2,29.76,NNW,338,0.0,0.0,25,0.00,,,0.00,WUHU216HW,2013-05-11 03:50:00,
2013-05-10 23:55:00,54.5,19.1,29.76,NW,315,0.4,0.4,25,0.00,,,0.00,WUHU216HW,2013-05-11 03:55:00,